FW6629 Weather Reports


time (UTC)temp
F
wind
direction
speed
knots
gust
knots
rain 1hr
in
rain 24hr
in
rain mn
in
humidity
%
barometer
mb
20260906130528 76 89 0.9 1.7 0.00 0.00 0.00 87 1013.8
20260906130047 76 78 0.0 1.7 0.00 0.00 0.00 87 1013.8
20260906125525 75 0 0.0 1.7 0.00 0.00 0.00 88 1013.7
20260906125024 75 0 0.0 1.7 0.00 0.00 0.00 87 1013.8
20260906124552 75 0 0.0 1.7 0.00 0.00 0.00 88 1013.8
20260906124024 75 92 0.9 1.7 0.00 0.00 0.00 88 1013.6
20260906123524 74 0 0.0 1.7 0.00 0.00 0.00 88 1013.7
20260906123052 74 94 0.0 1.7 0.00 0.00 0.00 88 1013.7
20260906122524 74 0 0.0 1.7 0.00 0.00 0.00 88 1013.7
20260906122025 74 0 0.0 1.7 0.00 0.00 0.00 88 1013.8
20260906121550 74 0 0.0 1.7 0.00 0.00 0.00 88 1013.6
20260906121030 74 96 0.9 1.7 0.00 0.00 0.00 88 1013.5
20260906120530 74 102 0.0 1.7 0.00 0.00 0.00 88 1013.4
20260906120057 74 92 0.0 1.7 0.00 0.00 0.00 88 1013.3
20260906115525 74 92 0.0 0.9 0.00 0.00 0.00 87 1013.1
20260906115024 74 0 0.0 0.9 0.00 0.00 0.00 87 1013.0
20260906114542 74 101 0.9 1.7 0.00 0.00 0.00 87 1013.0
20260906114023 74 69 0.0 1.7 0.00 0.00 0.00 87 1013.1
20260906113525 74 0 0.0 1.7 0.00 0.00 0.00 87 1013.1
20260906113049 74 0 0.0 1.7 0.00 0.00 0.00 87 1013.1
20260906112524 74 308 0.0 2.6 0.00 0.00 0.00 87 1013.0
20260906112025 74 304 1.7 2.6 0.00 0.00 0.00 87 1012.9
20260906111549 74 308 0.0 1.7 0.00 0.00 0.00 87 1012.9
20260906111025 74 283 0.0 1.7 0.00 0.00 0.00 86 1012.6
20260906110525 74 180 0.0 1.7 0.00 0.00 0.00 86 1012.5
20260906110048 75 0 0.0 0.9 0.00 0.00 0.00 86 1012.6
20260906105524 75 0 0.0 0.9 0.00 0.00 0.00 86 1012.6
20260906105025 75 118 0.0 0.9 0.00 0.00 0.00 86 1012.5
20260906104552 75 118 0.9 2.6 0.00 0.00 0.00 86 1012.5
20260906104024 75 102 0.9 2.6 0.00 0.00 0.00 86 1012.5
20260906103523 75 94 0.9 1.7 0.00 0.00 0.00 86 1012.5
20260906103049 75 97 0.9 1.7 0.00 0.00 0.00 85 1012.5
20260906102524 75 96 0.0 1.7 0.00 0.00 0.00 84 1012.4
20260906102028 76 96 0.9 1.7 0.00 0.00 0.00 84 1012.4
20260906101550 76 96 0.0 1.7 0.00 0.00 0.00 84 1012.5
20260906101025 76 121 0.9 1.7 0.00 0.00 0.00 84 1012.4
20260906100527 76 39 0.0 1.7 0.00 0.00 0.00 84 1012.4
20260906100046 76 0 0.0 1.7 0.00 0.00 0.00 83 1012.3
20260906095523 76 0 0.0 1.7 0.00 0.00 0.00 83 1012.3
20260906095024 76 0 0.0 0.9 0.00 0.00 0.00 82 1012.4
20260906094550 76 0 0.0 0.0 0.00 0.00 0.00 82 1012.5
20260906094027 76 0 0.0 0.0 0.00 0.00 0.00 82 1012.6
20260906093524 76 0 0.0 0.0 0.00 0.00 0.00 81 1012.8
20260906093056 76 0 0.0 0.0 0.00 0.00 0.00 81 1012.9
20260906092528 76 0 0.0 0.0 0.00 0.00 0.00 81 1013.0
20260906092025 77 0 0.0 0.0 0.00 0.00 0.00 81 1013.2
20260906091545 77 0 0.0 1.7 0.00 0.00 0.00 81 1013.1
20260906091024 77 0 0.0 1.7 0.00 0.00 0.00 81 1013.1
20260906090527 77 0 0.0 1.7 0.00 0.00 0.00 81 1013.1
20260906090055 77 0 0.0 1.7 0.00 0.00 0.00 81 1013.1
20260906085526 77 297 0.0 0.9 0.00 0.00 0.00 81 1013.2
20260906085024 77 1 0.9 1.7 0.00 0.00 0.00 81 1013.2
20260906084553 77 7 0.0 5.2 0.00 0.00 0.00 81 1013.4
20260906084026 77 67 0.0 5.2 0.00 0.00 0.00 81 1013.2
20260906083523 77 352 0.9 4.3 0.00 0.00 0.00 81 1013.2
20260906083049 77 349 1.7 2.6 0.00 0.00 0.00 81 1013.2
20260906082524 77 4 0.9 1.7 0.00 0.00 0.00 81 1013.2
20260906082024 77 341 0.0 1.7 0.00 0.00 0.00 81 1013.1
20260906081548 77 0 0.0 1.7 0.00 0.00 0.00 81 1012.9
20260906081025 77 0 0.0 1.7 0.00 0.00 0.00 81 1012.9
20260906080525 77 0 0.0 2.6 0.00 0.00 0.00 81 1012.7
20260906080059 77 314 0.9 2.6 0.00 0.00 0.00 81 1012.7
20260906075524 77 331 0.0 2.6 0.00 0.00 0.00 82 1012.7
20260906075026 77 346 0.9 2.6 0.00 0.00 0.00 82 1012.6
20260906074557 77 354 0.9 3.5 0.00 0.00 0.00 82 1012.4
20260906074024 76 353 1.7 5.2 0.00 0.00 0.00 83 1012.3
20260906073524 76 348 1.7 5.2 0.00 0.00 0.00 84 1012.3
20260906073048 76 302 0.9 7.0 0.00 0.00 0.00 85 1012.3
20260906072525 75 302 2.6 7.0 0.00 0.00 0.00 87 1012.4
20260906072028 75 358 1.7 6.1 0.00 0.00 0.00 88 1012.5
20260906071549 74 4 1.7 8.7 0.00 0.00 0.00 88 1012.5
20260906071025 74 354 4.3 8.7 0.00 0.00 0.00 88 1012.7
20260906070525 74 344 4.3 8.7 0.00 0.00 0.00 89 1012.9
20260906070058 74 3 0.9 1.7 0.00 0.00 0.00 89 1012.8
20260906065524 74 348 0.9 1.7 0.00 0.00 0.00 89 1012.7
20260906065024 74 0 0.0 2.6 0.00 0.00 0.00 89 1012.8
20260906064549 74 1 0.0 2.6 0.00 0.00 0.00 89 1012.9
20260906064025 74 1 1.7 2.6 0.00 0.00 0.00 89 1012.9
20260906063524 74 0 0.0 1.7 0.00 0.00 0.00 89 1013.1
20260906063049 73 0 0.0 1.7 0.00 0.00 0.00 89 1013.2
20260906062525 74 0 0.0 1.7 0.00 0.00 0.00 88 1013.3
20260906062025 74 0 0.0 1.7 0.00 0.00 0.00 89 1013.2
20260906061550 74 352 0.9 1.7 0.00 0.00 0.00 89 1013.2
20260906061024 74 344 0.0 1.7 0.00 0.00 0.00 88 1013.2
20260906060529 74 319 0.0 1.7 0.00 0.00 0.00 88 1013.0
20260906060056 74 0 0.0 1.7 0.00 0.00 0.00 88 1012.9
20260906055524 74 114 0.9 1.7 0.00 0.00 0.00 88 1013.0
20260906055025 74 126 0.9 2.6 0.00 0.00 0.00 88 1012.9
20260906054551 74 146 0.9 2.6 0.00 0.00 0.00 88 1012.8
20260906054024 74 121 0.9 2.6 0.00 0.00 0.00 88 1012.9
20260906053525 74 98 0.9 1.7 0.00 0.00 0.00 87 1012.9
20260906053048 74 101 0.0 1.7 0.00 0.00 0.00 87 1012.8
20260906052524 74 356 0.9 1.7 0.00 0.00 0.00 87 1012.7
20260906052025 74 40 0.0 1.7 0.00 0.00 0.00 87 1012.8
20260906051554 74 0 0.0 1.7 0.00 0.00 0.00 87 1012.9
20260906051025 75 0 0.9 1.7 0.00 0.00 0.00 87 1013.0
20260906050525 75 126 0.0 0.9 0.00 0.00 0.00 86 1013.1
20260906050047 75 126 0.9 0.9 0.00 0.00 0.00 86 1013.0
20260906045523 75 0 0.0 0.0 0.00 0.00 0.00 86 1013.3
20260906045023 75 0 0.0 0.0 0.00 0.00 0.00 86 1013.3
20260906044549 75 0 0.0 1.7 0.00 0.00 0.00 86 1013.4
20260906044029 75 0 0.0 1.7 0.00 0.00 0.00 85 1013.4
20260906043526 75 175 0.0 1.7 0.00 0.00 0.00 85 1013.2
20260906043047 75 0 0.9 1.7 0.00 0.00 0.00 86 1013.2
20260906042527 75 117 0.0 1.7 0.00 0.00 0.00 85 1013.2
20260906042025 75 0 0.0 1.7 0.00 0.00 0.00 85 1013.3
20260906041548 75 117 0.9 0.9 0.00 0.00 0.00 85 1013.3
20260906041025 76 101 0.0 1.7 0.00 0.00 0.00 84 1013.4
20260906040524 76 0 0.0 1.7 0.00 0.00 0.00 84 1013.2
20260906040048 76 0 0.0 0.0 0.00 0.00 0.00 84 1013.2
20260906035523 76 0 0.0 0.9 0.00 0.00 0.00 83 1013.2
20260906035024 76 0 0.0 1.7 0.00 0.00 0.00 84 1013.4
20260906034549 76 101 0.9 1.7 0.00 0.00 0.00 83 1013.4
20260906034024 76 101 0.0 1.7 0.00 0.00 0.00 82 1013.5
20260906033524 76 0 0.0 1.7 0.00 0.00 0.00 82 1013.5
20260906033047 77 0 0.0 1.7 0.00 0.00 0.00 82 1013.6
20260906032523 77 0 0.0 1.7 0.00 0.00 0.00 82 1013.5
20260906032024 77 97 0.9 1.7 0.00 0.00 0.00 81 1013.4
20260906031545 77 90 0.0 1.7 0.00 0.00 0.00 80 1013.3
20260906031026 77 0 0.0 1.7 0.00 0.00 0.00 80 1013.2
20260906030524 77 0 0.0 1.7 0.00 0.00 0.00 80 1013.3
20260906030053 77 0 0.0 1.7 0.00 0.00 0.00 80 1013.3
20260906025524 77 0 0.0 1.7 0.00 0.00 0.00 80 1013.3
20260906025025 77 0 0.0 1.7 0.00 0.00 0.00 80 1013.2
20260906024551 77 90 0.0 2.6 0.00 0.00 0.00 80 1013.2
20260906024027 77 171 0.9 2.6 0.00 0.00 0.00 80 1013.0
20260906023525 78 115 0.9 2.6 0.00 0.00 0.00 80 1013.0
20260906023048 78 164 0.0 1.7 0.00 0.00 0.00 80 1013.0
20260906022525 78 125 0.9 1.7 0.00 0.00 0.00 80 1012.9
20260906022032 78 108 0.0 1.7 0.00 0.00 0.00 80 1013.1
20260906021553 78 148 0.0 1.7 0.00 0.00 0.00 80 1013.1
20260906021026 78 120 0.9 1.7 0.00 0.00 0.00 79 1013.0
20260906020524 78 123 0.0 1.7 0.00 0.00 0.00 78 1013.0
20260906020056 78 0 0.0 1.7 0.00 0.00 0.00 78 1012.9
20260906015525 78 0 0.0 0.0 0.00 0.00 0.00 77 1012.9
20260906015024 78 0 0.0 0.9 0.00 0.00 0.00 77 1012.7
20260906014550 79 0 0.0 1.7 0.00 0.00 0.00 77 1012.7
20260906014027 79 121 0.9 1.7 0.00 0.00 0.00 77 1012.6
20260906013525 79 173 0.9 1.7 0.00 0.00 0.00 76 1012.6
20260906013048 79 141 0.0 1.7 0.00 0.00 0.00 75 1012.5
20260906012524 79 0 0.0 0.0 0.00 0.00 0.00 75 1012.3
20260906012026 79 0 0.0 1.7 0.00 0.00 0.00 74 1012.4
20260906011602 80 0 0.0 1.7 0.00 0.00 0.00 74 1012.3
20260906011024 80 7 0.0 1.7 0.00 0.00 0.00 74 1012.2
20260906010524 80 7 0.0 1.7 0.00 0.00 0.00 73 1012.2
20260906010048 80 7 0.9 1.7 0.00 0.00 0.00 74 1012.1
20260906005525 80 350 0.9 1.7 0.00 0.00 0.00 73 1012.1
20260906005029 80 71 0.0 1.7 0.00 0.00 0.00 72 1012.0
20260906004546 80 0 0.0 1.7 0.00 0.00 0.00 71 1012.0
20260906004028 81 104 0.9 1.7 0.00 0.00 0.00 71 1012.0
20260906003526 82 104 0.9 1.7 0.00 0.00 0.00 70 1011.9
20260906003047 82 119 0.9 1.7 0.00 0.00 0.00 69 1011.8
20260906002524 83 0 0.9 1.7 0.00 0.00 0.00 67 1011.8
20260906002027 83 351 0.9 1.7 0.00 0.00 0.00 66 1011.6
20260906001548 83 0 0.0 1.7 0.00 0.00 0.00 66 1011.7
20260906001027 84 104 0.9 1.7 0.00 0.00 0.00 65 1011.7
20260906000532 84 67 0.0 1.7 0.00 0.00 0.00 63 1011.8
20260906000056 85 0 0.0 1.7 0.00 0.00 0.00 63 1011.9
20260905235525 85 5 0.0 3.5 0.00 0.00 0.00 62 1011.9
20260905235024 85 45 0.9 3.5 0.00 0.00 0.00 61 1012.1
20260905234550 85 84 0.0 1.7 0.00 0.00 0.00 60 1012.2
20260905234026 86 0 0.0 2.6 0.00 0.00 0.00 60 1012.2
20260905233524 86 0 0.0 2.6 0.00 0.00 0.00 60 1012.4
20260905233105 86 73 0.0 1.7 0.00 0.00 0.00 59 1012.5
20260905232526 86 18 0.0 1.7 0.00 0.00 0.00 59 1012.5
20260905232025 86 91 0.0 2.6 0.00 0.00 0.00 58 1012.3
20260905231555 87 96 0.9 2.6 0.00 0.00 0.00 58 1012.0
20260905231024 87 96 0.9 3.5 0.00 0.00 0.00 57 1012.0
20260905230533 87 98 1.7 3.5 0.00 0.00 0.00 57 1012.0
20260905230049 88 114 2.6 3.5 0.00 0.00 0.00 57 1012.1
20260905225528 88 63 0.9 2.6 0.00 0.00 0.00 56 1012.0
20260905225027 88 79 0.0 6.1 0.00 0.00 0.00 56 1012.0
20260905224607 89 76 1.7 6.1 0.00 0.00 0.00 56 1011.9
20260905224023 89 27 0.9 4.3 0.00 0.00 0.00 57 1011.9
20260905223527 90 89 0.9 4.3 0.00 0.00 0.00 56 1011.9
20260905223055 90 21 1.7 4.3 0.00 0.00 0.00 56 1011.9
20260905222531 91 32 0.9 3.5 0.00 0.00 0.00 55 1012.0
20260905222031 91 45 0.9 5.2 0.00 0.00 0.00 54 1012.0
20260905221547 92 73 1.7 6.1 0.00 0.00 0.00 53 1012.2
20260905221028 92 334 2.6 6.1 0.00 0.00 0.00 52 1012.3
20260905220525 93 64 0.9 4.3 0.00 0.00 0.00 53 1012.5
20260905220049 93 3 1.7 6.1 0.00 0.00 0.00 51 1012.6
20260905215524 93 11 1.7 6.1 0.00 0.00 0.00 53 1012.7
20260905215031 93 321 1.7 5.2 0.00 0.00 0.00 53 1012.6
20260905214552 93 359 1.7 5.2 0.00 0.00 0.00 53 1012.6
20260905214026 93 122 0.9 5.2 0.00 0.00 0.00 53 1012.7
20260905213525 92 65 0.9 7.0 0.00 0.00 0.00 55 1012.7
20260905213049 92 40 1.7 7.0 0.00 0.00 0.00 54 1012.7
20260905212524 92 352 1.7 6.1 0.00 0.00 0.00 56 1012.7
20260905212031 92 31 1.7 7.0 0.00 0.00 0.00 56 1012.7
20260905211543 91 78 1.7 7.0 0.00 0.00 0.00 55 1012.7
20260905211023 91 56 2.6 7.0 0.00 0.00 0.00 56 1012.7
20260905210523 91 360 0.9 7.0 0.00 0.00 0.00 58 1012.6
20260905210050 90 70 1.7 7.8 0.00 0.00 0.00 57 1012.7
20260905205524 91 20 1.7 7.8 0.00 0.00 0.00 57 1012.7
20260905205024 91 79 3.5 7.8 0.00 0.00 0.00 56 1012.7
20260905204548 92 21 1.7 7.0 0.00 0.00 0.00 56 1012.8
20260905204025 92 42 2.6 11.3 0.00 0.00 0.00 55 1012.7
20260905203524 93 2 3.5 13.9 0.00 0.00 0.00 52 1012.8
20260905203053 95 33 4.3 13.9 0.00 0.00 0.00 51 1012.8
20260905202525 97 8 4.3 12.2 0.00 0.00 0.00 49 1012.8
20260905202024 99 288 4.3 12.2 0.00 0.00 0.00 46 1012.8
20260905201551 99 354 1.7 4.3 0.00 0.00 0.00 47 1012.4
20260905201024 99 355 1.7 5.2 0.00 0.00 0.00 45 1012.4
20260905200525 98 179 0.9 5.2 0.00 0.00 0.00 47 1012.4
20260905200051 97 325 0.0 1.7 0.00 0.00 0.00 45 1012.4
20260905195526 96 11 0.9 1.7 0.00 0.00 0.00 46 1012.5
20260905195028 97 0 0.0 1.7 0.00 0.00 0.00 47 1012.8
20260905194553 97 27 0.0 3.5 0.00 0.00 0.00 46 1012.8
20260905194023 97 49 0.9 7.8 0.00 0.00 0.00 45 1012.8
20260905193526 97 352 2.6 7.8 0.00 0.00 0.00 46 1012.8
20260905193048 97 360 1.7 7.8 0.00 0.00 0.00 45 1012.8
20260905192526 97 356 1.7 7.0 0.00 0.00 0.00 47 1012.8
20260905192026 95 323 1.7 7.0 0.00 0.00 0.00 50 1012.8
20260905191551 95 331 3.5 7.0 0.00 0.00 0.00 50 1012.9
20260905191024 95 305 1.7 7.0 0.00 0.00 0.00 50 1013.0
20260905190529 95 3 3.5 7.0 0.00 0.00 0.00 49 1013.1
20260905190058 96 10 3.5 8.7 0.00 0.00 0.00 48 1013.1
20260905185524 97 11 2.6 8.7 0.00 0.00 0.00 47 1013.2
20260905185023 98 23 1.7 5.2 0.00 0.00 0.00 46 1013.1
20260905184608 99 359 1.7 7.8 0.00 0.00 0.00 45 1013.0
20260905184024 100 353 3.5 7.8 0.00 0.00 0.00 45 1013.0
20260905183525 101 37 1.7 5.2 0.00 0.00 0.00 42 1013.1
20260905183049 100 15 0.9 4.3 0.00 0.00 0.00 45 1013.0
20260905182524 99 89 0.9 2.6 0.00 0.00 0.00 50 1013.1
20260905182025 99 99 0.0 3.5 0.00 0.00 0.00 45 1013.0
20260905181547 97 359 0.9 4.3 0.00 0.00 0.00 46 1013.4
20260905181025 98 29 1.7 6.1 0.00 0.00 0.00 46 1013.5
20260905180525 98 2 1.7 6.1 0.00 0.00 0.00 47 1013.5
20260905180046 99 15 2.6 6.1 0.00 0.00 0.00 47 1013.4
20260905175524 98 353 1.7 5.2 0.00 0.00 0.00 47 1013.4
20260905175023 98 261 0.9 4.3 0.00 0.00 0.00 46 1013.4
20260905174556 98 82 1.7 4.3 0.00 0.00 0.00 46 1013.5
20260905174024 99 8 1.7 6.1 0.00 0.00 0.00 44 1013.5
20260905173525 98 33 0.9 6.1 0.00 0.00 0.00 47 1013.5
20260905173048 97 329 0.9 3.5 0.00 0.00 0.00 48 1013.6
20260905172525 97 4 1.7 3.5 0.00 0.00 0.00 50 1013.6
20260905172029 97 42 0.9 3.5 0.00 0.00 0.00 50 1013.5
20260905171547 97 239 0.0 5.2 0.00 0.00 0.00 52 1013.5
20260905171025 96 0 0.9 5.2 0.00 0.00 0.00 53 1013.5
20260905170525 96 71 2.6 5.2 0.00 0.00 0.00 53 1013.6
20260905170044 96 94 0.9 5.2 0.00 0.00 0.00 54 1013.7
20260905165523 96 35 0.9 4.3 0.00 0.00 0.00 54 1013.8
20260905165023 96 354 0.9 4.3 0.00 0.00 0.00 53 1014.0
20260905164549 95 153 0.0 2.6 0.00 0.00 0.00 57 1014.0
20260905164025 95 71 0.9 2.6 0.00 0.00 0.00 56 1014.1
20260905163525 95 94 0.0 4.3 0.00 0.00 0.00 58 1014.1
20260905163049 94 79 0.0 4.3 0.00 0.00 0.00 56 1014.2
20260905162525 94 18 1.7 4.3 0.00 0.00 0.00 57 1014.3
20260905162026 93 353 0.9 3.5 0.00 0.00 0.00 58 1014.4
20260905161549 93 283 1.7 3.5 0.00 0.00 0.00 59 1014.4
20260905161025 93 54 0.9 4.3 0.00 0.00 0.00 60 1014.5
20260905160529 93 97 1.7 4.3 0.00 0.00 0.00 61 1014.5
20260905160043 93 4 0.9 2.6 0.00 0.00 0.00 62 1014.6
20260905155524 92 127 0.9 2.6 0.00 0.00 0.00 61 1014.6
20260905155023 92 75 0.0 4.3 0.00 0.00 0.00 61 1014.6
20260905154553 92 143 0.0 4.3 0.00 0.00 0.00 62 1014.7
20260905154025 91 27 0.9 4.3 0.00 0.00 0.00 63 1014.8
20260905153525 91 116 0.0 3.5 0.00 0.00 0.00 65 1014.8
20260905153057 90 85 1.7 4.3 0.00 0.00 0.00 66 1014.7
20260905152525 91 175 2.6 4.3 0.00 0.00 0.00 66 1014.9
20260905152025 89 323 0.9 3.5 0.00 0.00 0.00 67 1014.8
20260905151550 89 85 0.9 3.5 0.00 0.00 0.00 70 1014.7
20260905151032 89 354 0.0 3.5 0.00 0.00 0.00 68 1015.0
20260905150528 89 135 0.9 4.3 0.00 0.00 0.00 71 1014.9
20260905150049 89 96 1.7 4.3 0.00 0.00 0.00 72 1014.8
20260905145526 88 150 0.9 1.7 0.00 0.00 0.00 72 1015.0
20260905145025 87 76 0.0 1.7 0.00 0.00 0.00 73 1015.0
20260905144545 87 350 0.9 1.7 0.00 0.00 0.00 74 1015.1
20260905144025 86 42 0.0 2.6 0.00 0.00 0.00 75 1015.1
20260905143524 86 10 0.0 2.6 0.00 0.00 0.00 76 1015.1
20260905143049 85 5 0.9 1.7 0.00 0.00 0.00 76 1015.1
20260905142524 84 0 0.0 1.7 0.00 0.00 0.00 79 1015.2
20260905142025 84 2 0.0 1.7 0.00 0.00 0.00 80 1015.2
20260905141548 83 71 0.0 1.7 0.00 0.00 0.00 81 1015.3
20260905141024 82 0 0.0 1.7 0.00 0.00 0.00 82 1015.4
20260905140524 82 187 0.0 1.7 0.00 0.00 0.00 84 1015.4
20260905140046 81 93 0.0 1.7 0.00 0.00 0.00 84 1015.4
20260905135526 81 146 0.9 1.7 0.00 0.00 0.00 84 1015.4
20260905135024 80 0 0.0 1.7 0.00 0.00 0.00 86 1015.4
20260905134542 80 344 0.9 1.7 0.00 0.00 0.00 87 1015.5
20260905134024 79 50 0.0 1.7 0.00 0.00 0.00 87 1015.5
20260905133523 79 0 0.0 1.7 0.00 0.00 0.00 88 1015.5
20260905133049 78 109 0.9 1.7 0.00 0.00 0.00 89 1015.5
20260905132524 78 98 0.0 1.7 0.00 0.00 0.00 90 1015.6
20260905132027 77 0 0.0 1.7 0.00 0.00 0.00 90 1015.7
20260905131559 77 0 0.0 1.7 0.00 0.00 0.00 91 1015.7